TimeMST,TemperatureF,Dew PointF,Humidity,Sea Level PressureIn,VisibilityMPH,Wind Direction,Wind SpeedMPH,Gust SpeedMPH,PrecipitationIn,Events,Conditions,WindDirDegrees,DateUTC
12:15 AM,42.8,37.4,81,29.87,10.0,South,5.8,-,N/A,Thunderstorm,Mostly Cloudy,180,2012-11-10 07:15:00
12:35 AM,44.6,37.4,76,29.86,10.0,SW,16.1,24.2,N/A,,Overcast,220,2012-11-10 07:35:00
12:55 AM,42.8,37.4,81,29.84,10.0,South,10.4,-,N/A,,Mostly Cloudy,180,2012-11-10 07:55:00
1:15 AM,42.8,37.4,81,29.84,10.0,South,15.0,26.5,0.01,,Mostly Cloudy,190,2012-11-10 08:15:00
1:35 AM,42.8,37.4,81,29.82,10.0,SSW,10.4,-,0.02,,Mostly Cloudy,200,2012-11-10 08:35:00
1:55 AM,41.0,37.4,87,29.83,10.0,SW,3.5,-,0.02,,Overcast,220,2012-11-10 08:55:00
2:15 AM,41.0,37.4,87,29.82,10.0,South,5.8,-,N/A,,Mostly Cloudy,180,2012-11-10 09:15:00
2:35 AM,42.8,37.4,81,29.80,10.0,SSW,11.5,-,N/A,,Mostly Cloudy,200,2012-11-10 09:35:00
2:55 AM,42.8,37.4,81,29.79,10.0,SSW,10.4,-,N/A,,Overcast,200,2012-11-10 09:55:00
3:15 AM,44.6,37.4,76,29.78,10.0,SSW,10.4,-,N/A,,Overcast,200,2012-11-10 10:15:00
3:35 AM,44.6,37.4,76,29.77,10.0,SW,9.2,-,N/A,,Overcast,220,2012-11-10 10:35:00
3:55 AM,44.6,37.4,76,29.76,10.0,SSW,12.7,-,N/A,,Mostly Cloudy,210,2012-11-10 10:55:00
4:15 AM,44.6,37.4,76,29.76,10.0,SW,12.7,-,N/A,,Mostly Cloudy,220,2012-11-10 11:15:00
4:55 AM,42.8,37.4,81,29.75,10.0,SSW,9.2,-,N/A,,Overcast,210,2012-11-10 11:55:00
5:35 AM,42.8,35.6,76,29.73,10.0,SSW,13.8,-,N/A,,Overcast,200,2012-11-10 12:35:00
5:55 AM,44.6,35.6,71,29.72,10.0,SW,16.1,23.0,N/A,,Overcast,220,2012-11-10 12:55:00
6:15 AM,44.6,35.6,71,29.73,10.0,SW,16.1,20.7,N/A,,Mostly Cloudy,220,2012-11-10 13:15:00
6:35 AM,42.8,35.6,76,29.72,10.0,SW,16.1,-,N/A,,Mostly Cloudy,220,2012-11-10 13:35:00
6:55 AM,42.8,33.8,70,29.72,10.0,SW,16.1,19.6,N/A,,Mostly Cloudy,220,2012-11-10 13:55:00
7:15 AM,44.6,33.8,66,29.72,10.0,SW,17.3,26.5,N/A,,Mostly Cloudy,220,2012-11-10 14:15:00
7:35 AM,44.6,33.8,66,29.72,10.0,SW,25.3,35.7,N/A,,Mostly Cloudy,220,2012-11-10 14:35:00
7:55 AM,44.6,33.8,66,29.72,10.0,SW,27.6,38.0,N/A,,Overcast,220,2012-11-10 14:55:00
8:15 AM,44.6,33.8,66,29.71,10.0,SW,32.2,39.1,N/A,,Overcast,220,2012-11-10 15:15:00
8:35 AM,44.6,33.8,66,29.70,10.0,SW,29.9,35.7,N/A,,Overcast,220,2012-11-10 15:35:00
8:55 AM,44.6,32.0,61,29.74,10.0,West,26.5,39.1,N/A,,Overcast,280,2012-11-10 15:55:00
9:15 AM,35.6,32.0,87,29.75,8.0,West,11.5,23.0,0.01,,Overcast,270,2012-11-10 16:15:00
9:35 AM,35.6,30.2,81,29.75,10.0,West,15.0,21.9,0.03,,Overcast,280,2012-11-10 16:35:00
9:55 AM,35.6,30.2,81,29.74,10.0,West,18.4,24.2,0.04,,Overcast,270,2012-11-10 16:55:00
10:15 AM,37.4,30.2,75,29.74,10.0,West,23.0,31.1,N/A,,Overcast,280,2012-11-10 17:15:00
10:35 AM,39.2,30.2,70,29.76,10.0,West,24.2,31.1,N/A,,Mostly Cloudy,280,2012-11-10 17:35:00
10:55 AM,39.2,28.4,65,29.77,10.0,West,16.1,28.8,N/A,,Overcast,280,2012-11-10 17:55:00
11:15 AM,37.4,28.4,70,29.77,10.0,WNW,17.3,24.2,N/A,,Overcast,300,2012-11-10 18:15:00
11:35 AM,37.4,28.4,70,29.77,10.0,WNW,19.6,25.3,N/A,,Overcast,300,2012-11-10 18:35:00
11:55 AM,33.8,21.2,60,29.79,10.0,NW,21.9,29.9,N/A,,Mostly Cloudy,310,2012-11-10 18:55:00
12:15 PM,33.8,19.4,56,29.79,10.0,WNW,21.9,29.9,N/A,,Overcast,300,2012-11-10 19:15:00
12:35 PM,33.8,19.4,56,29.79,10.0,WNW,23.0,27.6,N/A,,Overcast,290,2012-11-10 19:35:00
12:55 PM,33.8,19.4,56,29.78,10.0,NW,20.7,28.8,N/A,,Overcast,310,2012-11-10 19:55:00
1:15 PM,33.8,19.4,56,29.78,10.0,NW,19.6,31.1,N/A,,Overcast,310,2012-11-10 20:15:00
1:35 PM,32.0,19.4,60,29.77,10.0,NW,15.0,-,N/A,,Overcast,320,2012-11-10 20:35:00
1:55 PM,32.0,19.4,60,29.77,10.0,WNW,18.4,25.3,N/A,,Overcast,290,2012-11-10 20:55:00
2:15 PM,33.8,19.4,56,29.77,10.0,West,18.4,29.9,N/A,,Overcast,280,2012-11-10 21:15:00
2:35 PM,33.8,21.2,60,29.77,10.0,WNW,13.8,20.7,N/A,,Overcast,290,2012-11-10 21:35:00
2:55 PM,37.4,19.4,48,29.77,10.0,West,13.8,25.3,N/A,,Overcast,280,2012-11-10 21:55:00
3:15 PM,35.6,17.6,48,29.76,10.0,West,21.9,29.9,N/A,,Mostly Cloudy,280,2012-11-10 22:15:00
3:35 PM,35.6,15.8,44,29.77,10.0,West,18.4,33.4,N/A,,Scattered Clouds,280,2012-11-10 22:35:00
3:55 PM,35.6,12.2,38,29.77,10.0,West,19.6,33.4,N/A,,Mostly Cloudy,280,2012-11-10 22:55:00
4:15 PM,35.6,12.2,38,29.78,10.0,WNW,19.6,26.5,N/A,,Overcast,290,2012-11-10 23:15:00
4:35 PM,32.0,10.4,41,29.78,10.0,West,16.1,25.3,N/A,,Scattered Clouds,280,2012-11-10 23:35:00
4:55 PM,32.0,8.6,38,29.79,10.0,WNW,25.3,31.1,N/A,,Clear,290,2012-11-10 23:55:00
5:15 PM,30.2,8.6,40,29.80,10.0,West,17.3,27.6,N/A,,Clear,280,2012-11-11 00:15:00
5:35 PM,30.2,10.4,44,29.83,10.0,NW,13.8,24.2,N/A,,Scattered Clouds,310,2012-11-11 00:35:00
5:55 PM,28.4,15.8,59,29.84,10.0,WNW,9.2,-,N/A,,Mostly Cloudy,290,2012-11-11 00:55:00
6:15 PM,28.4,15.8,59,29.85,10.0,NW,8.1,-,N/A,,Overcast,320,2012-11-11 01:15:00
6:35 PM,30.2,14.0,51,29.85,10.0,WNW,10.4,19.6,N/A,,Overcast,300,2012-11-11 01:35:00
6:55 PM,28.4,14.0,55,29.85,10.0,WNW,9.2,-,N/A,,Overcast,290,2012-11-11 01:55:00
7:15 PM,28.4,14.0,55,29.85,10.0,West,9.2,-,N/A,,Overcast,280,2012-11-11 02:15:00
7:35 PM,28.4,14.0,55,29.85,10.0,WNW,6.9,-,N/A,,Overcast,290,2012-11-11 02:35:00
7:55 PM,28.4,14.0,55,29.85,10.0,WNW,3.5,-,N/A,,Overcast,300,2012-11-11 02:55:00
8:35 PM,26.6,14.0,59,29.84,10.0,NW,3.5,-,N/A,,Mostly Cloudy,310,2012-11-11 03:35:00
9:15 PM,24.8,14.0,64,29.84,10.0,WNW,4.6,-,N/A,,Partly Cloudy,300,2012-11-11 04:15:00
9:35 PM,23.0,14.0,68,29.85,10.0,Calm,Calm,-,N/A,,Clear,0,2012-11-11 04:35:00
9:55 PM,24.8,15.8,69,29.85,10.0,WSW,4.6,-,N/A,,Partly Cloudy,240,2012-11-11 04:55:00
10:15 PM,23.0,14.0,68,29.85,10.0,WNW,3.5,-,N/A,,Partly Cloudy,300,2012-11-11 05:15:00
10:35 PM,23.0,14.0,68,29.85,10.0,WNW,3.5,-,N/A,,Mostly Cloudy,290,2012-11-11 05:35:00
10:55 PM,24.8,14.0,64,29.85,10.0,Calm,Calm,-,N/A,,Mostly Cloudy,0,2012-11-11 05:55:00
11:15 PM,23.0,12.2,63,29.85,10.0,WNW,3.5,-,N/A,,Mostly Cloudy,290,2012-11-11 06:15:00
11:35 PM,21.2,12.2,68,29.86,10.0,NNW,4.6,-,N/A,,Overcast,330,2012-11-11 06:35:00
11:55 PM,19.4,12.2,74,29.86,10.0,NNW,4.6,-,N/A,,Scattered Clouds,330,2012-11-11 06:55:00